Regional Weather Roundup
Issued by NWS Wilmington, NC

Home | Current Version | Previous Version | Text Only | Print | Product List | Glossary On
Versions: 1 2 3 4 5 6 7 8 9 10 11 12 13 14 15 16 17 18 19 20 21 22 23 24 25 26 27
000
ASUS42 KILM 310413
RWRILM
RWRILM
REGIONAL HOURLY WEATHER ROUNDUP
NATIONAL WEATHER SERVICE WILMINGTON NC
1200 AM EDT SUN JUL 31 2016

NOTE: "FAIR" INDICATES FEW OR NO CLOUDS BELOW 12,000 FEET WITH NO
SIGNIFICANT WEATHER AND/OR OBSTRUCTIONS TO VISIBILITY.

...............WFO WILMINGTON COUNTY WARNING AREA...............

......COASTAL NC AND SC COUNTIES......

CITY           SKY/WX    TMP DP  RH WIND       PRES   REMARKS
WILMINGTON     CLOUDY    82  76  81 SW8       30.02S
N MYRTLE BEACH MOCLDY    81  75  82 CALM      30.01S
MYRTLE BEACH   MOCLDY    84  70  61 S12       30.03F

......INLAND NC AND SC COUNTIES.......

CITY           SKY/WX    TMP DP  RH WIND       PRES   REMARKS
LUMBERTON      CLOUDY    76  73  91 CALM      29.99S
ELIZABETHTOWN  CLOUDY    77  75  95 CALM      30.00S
WHITEVILLE     LGT RAIN  76  73  88 S3        30.00S
FLORENCE       MOCLDY    77  74  90 SW3       30.01S
DARLINGTON     PTCLDY    77  75  93 SW3       30.01S
KINGSTREE      FAIR      79  73  83 CALM      30.00S
HARTSVILLE     FAIR      73  72  94 CALM      30.01S
BENNETTSVILLE  FAIR      77  75  94 CALM      30.00S
CONWAY         FAIR      79  72  78 S5        30.01S
GEORGETOWN     FAIR      81  77  89 SW6       30.03S
MARION         FAIR      75  72  88 S3        30.00S

....................REST OF NORTH CAROLINA......................

.........EASTERN NC.........

CITY           SKY/WX    TMP DP  RH WIND       PRES   REMARKS
CAPE HATTERAS  CLOUDY    81  80  97 SW9       30.01S HX  91
JACKSONVILLE   LGT RAIN  81  76  84 CALM      30.01F
MOREHEAD CITY  CLEAR     84  81  90 SW12      30.02S HX  99
KENANSVILLE    NOT AVBL
NEW BERN       MOCLDY    81  77  88 S3        30.02R
ELIZABETH CITY CLOUDY    76  75  97 SW5       29.98S

.........CENTRAL NC.........

CITY           SKY/WX    TMP DP  RH WIND       PRES   REMARKS
RALEIGH DURHAM MOCLDY    78  74  87 SE6       30.01S
ROCKY MOUNT    CLOUDY    75  75 100 S5        30.00F
ROANOKE RAPIDS NOT AVBL
FAYETTEVILLE   MOCLDY    80  72  76 S7        29.99F
HOFFMAN        CLOUDY    76  73  90 S5        30.00S

.........WESTERN NC.........

CITY           SKY/WX    TMP DP  RH WIND       PRES   REMARKS
CHARLOTTE      MOCLDY    77  71  82 CALM      30.03R
GREENSBORO     CLOUDY    81  71  71 SW5       30.01R
HICKORY        NOT AVBL
BOONE          NOT AVBL
ASHEVILLE      NOT AVBL

.....................REST OF SOUTH CAROLINA.....................

.........EASTERN SC.........

CITY           SKY/WX    TMP DP  RH WIND       PRES   REMARKS
CHARLESTON     PTCLDY    84  74  71 SW6       30.02S HX  91
BEAUFORT MCAS  CLOUDY    82  72  71 CALM      30.03S
HILTON HEAD    CLOUDY    86  77  74 S10G18    30.04S HX  97

.........CENTRAL SC.........

CITY           SKY/WX    TMP DP  RH WIND       PRES   REMARKS
COLUMBIA       CLOUDY    84  71  65 S5        30.01R
ORANGEBURG     CLOUDY    81  72  74 SW6       30.01F
SUMTER SHAW    CLOUDY    83  71  67 NW2       29.99R

.........WESTERN SC.........

CITY           SKY/WX    TMP DP  RH WIND       PRES   REMARKS
GREENVILLE     NOT AVBL
ROCK HILL      MOCLDY    76  69  79 SW6       30.04R
ANDERSON       PTCLDY    78  73  84 CALM      30.03R
CLEMSON        NOT AVBL
GREENWOOD      PTCLDY    77  70  79 SW5       30.04S


...................COASTAL AND OFFSHORE REPORTS..................

................LOCAL PIERS AND NC RESERVE................


STATION/POSITION TIME  SKY/WX   TEMP    WIND        PRES    VSBY
                                AIR SEA DIR/SP/G
                 (UTC)          (F)     (DEG/KT/KT) (MB)    (MI)
JOHNY MRCER PIER 0300               83                N/A
NC RESRV MASNBRO NOT AVBL
OCEAN CREST PIER NOT AVBL
SPRINGMAID  PIER 0300               84                N/A


................COASTAL AND OFFSHORE BUOYS................


STATION/POSITION TIME  SKY/WX   TEMP    WIND        PRES    VSBY
                                AIR SEA DIR/SP/G
                 (UTC)          (F)     (DEG/KT/KT) (MB)    (MI)
DIMNDSHOAL 41025 0350            85 84  210/ 19/ 21 1016.2R
WVE H/P(F/S)=  4/ 5 SWL H/P/D(F/S/D)=  2/260/13

CAPE LOOKOUT     0400            84     220/ 10/ 13 1016.4R
ONSLOW BAY 41036 NOT AVBL
ONSLOW BAY 41064 0308            85 85  210/ 14/ 17 1016.8R
ONSLOW BAY 41159 0325               85                N/A
WVE H/P(F/S)=  4/ 5

5SE WRITBC 41038 NOT AVBL
MASNBO INL 41110 0306               81                N/A
WVE H/P(F/S)=  2/ 4

WILM HARBR 41108 0326               85                N/A
WVE H/P(F/S)=  3/ 4

27SE WRITB 41037 0308            85 85  210/ 14/ 19 1017.0R
FRYING PAN 41013 0400            86 85  200/ 12/ 16 1016.8F
SUNST NRSH 41024 0308            85 85  240/  4/ 10 1016.0F
CAPRS NRSH 41029 0308            86 85  220/ 16/ 21 1016.4F
EDISTO     41004 0350            85 86  190/ 16/ 19 1016.2F
WVE H/P(F/S)=  3/ 4 SWL H/P/D(F/S/D)=  2/140/ 8



..........OFFSHORE BUOYS BEYOND 100 NM OFFSHORE...........
.....IN A TRIANGLE---HAT TO BERMUDA TO BAHAMAS TO HAT.....


STATION/POSITION TIME  SKY/WX   TEMP    WIND        PRES    VSBY
                                AIR SEA DIR/SP/G
                 (UTC)          (F)     (DEG/KT/KT) (MB)    (MI)
150E HAT   41001 NOT AVBL
W BERMUDA  41048 0350            84 85  210/ 14/ 16 1021.1S
WVE H/P(F/S)=  4/ 6 SWL H/P/D(F/S/D)=  2/170/ 9

ATLANTIC S 41049 0350            83 85   90/ 10/ 12 1024.1F
WVE H/P(F/S)=  4/ 8 SWL H/P/D(F/S/D)=  3/110/ 8

E BAHAMAS  41046 0400            84 85   80/ 16/ 19 1020.1F
NE BAHAMAS 41047 0400            84 85  160/ 12/ 14 1021.4R
120E CANVRL41010 0320            85 87  140/ 14/ 16 1018.9R

END




USA.gov is the U.S. government's official web portal to all federal, state and local government web resources and services.